CZ-6A DEB, 60690

Orbit data source: Space-Track

CZ-6A DEB, 60690 is space debris in LEO originally from a launch on Tue, 06 Aug 2024 UTC launched from the Taiyaun Space Center, China (TSC). Debris objects in space refer to the collection of defunct objects orbiting the Earth. Examples of debris include non-operational satellites, rocket bodies, and fragments generated from explosions, collisions, or faulty payload assembly.

Loading next visibility...
Identifier
60690, 2024-140CT
Orbit
LEO
Country
Flag of CNCN / PRC
Related business
Manufacturer
SAST
Mission
Spacecraft
Bus & Motor
Unknown
Mass
Unknown
Launch date (UTC)
2024-08-06 (1 year ago)
Launch vehicle
Unknown
Launch site
Taiyaun Space Center, China (TSC)
Object type
Payload
Rocket body
Debris
Shape & HBR
Unknown shape, 0.6 m
Radar Cross Section
Medium (>0.1 m² and <1 m²)

Expand to show TLE details & history
Last TLE update: 5 hours ago

TLE from 5 hours ago
0 CZ-6A DEB
1 60690U 24140CT  25354.19930139  .00000200  00000-0  94100-4 0  9996
2 60690  89.0173 296.2704 0067588  51.2400 309.4800 14.14773766 70396
Epoch: 2025-12-20T04:46Z
TLE epoch observation values (Epoch: 2025-12-20T04:46:59.640Z)
Latitude
0.00002°
Longitude
135.49237°
Altitude
815.287 km
Speed
7.461 km/s
True Right ascension
19h 45m 04s
True Declination
0° 00' 00"
Sunlit
Object was in daylight at epoch
Visualization orbit readout
Latitude
Unknown
Longitude
Unknown
Altitude
Unknown
Speed
Unknown
Apparent Right ascension
Unknown
Apparent Declination
Unknown
Sunlit
N/A
Visualization observer readout
Local Sidereal Time
08:15:24
Azimuth
Unknown
Elevation
Unknown
Doppler factor
Unknown
Orbital elements
Apogee altitude
888.827 km
Perigee altitude
791.254 km
Semi-major axis
7,218.177 km
Eccentricity
0.00676
Inclination
89.0173°
RAAN
296.2704°
Arg. of periapsis
51.24°
True anomaly
308.87899°
Mean anomaly
309.48°
Eccentric anomaly
309.17982°
Mean motion
3.53917 °/min
Orbital period
101.72 mins
BSTAR
0.0000941
Loading maneuver chart data...
Computing Atmospheric mass density...

Documentation

Showing up to 5 results
|